EDT,Max TemperatureF,Mean TemperatureF,Min TemperatureF,Max Dew PointF,MeanDew PointF,Min DewpointF,Max Humidity, Mean Humidity, Min Humidity, Max Sea Level PressureIn, Mean Sea Level PressureIn, Min Sea Level PressureIn, Max VisibilityMiles, Mean VisibilityMiles, Min VisibilityMiles, Max Wind SpeedMPH, Mean Wind SpeedMPH, Max Gust SpeedMPH,PrecipitationIn, CloudCover, Events, WindDirDegrees
2013-5-1,64,60,57,61,58,55,100,89,77,30.28,30.22,30.14,10,10,8,14,8,24,0.05,8,Rain,28
2013-5-2,67,63,57,61,58,55,100,85,68,30.30,30.27,30.23,10,10,10,13,10,20,0.00,7,,46
2013-5-3,71,61,52,54,50,42,95,71,47,30.24,30.20,30.14,10,10,10,18,9,26,0.00,1,,53
2013-5-4,66,58,50,54,50,44,100,81,59,30.17,30.11,30.04,10,9,2,20,10,26,0.01,7,Rain,45
2013-5-5,65,58,51,61,55,48,100,89,77,30.06,29.98,29.93,10,9,2,18,13,26,0.08,7,Rain,59
2013-5-6,77,67,59,64,60,50,100,94,47,29.96,29.90,29.82,10,8,1,15,10,20,0.62,7,Rain,99
2013-5-7,71,62,54,54,50,46,92,71,42,29.97,29.91,29.87,10,10,6,14,4,20,0.00,2,Rain,222
2013-5-8,76,64,54,62,55,52,99,63,44,30.02,29.96,29.93,10,10,10,14,6,17,0.00,3,Rain,222
2013-5-9,82,68,55,61,57,52,100,70,36,30.08,30.04,29.99,10,9,2,10,4,,0.00,1,Rain,316
2013-5-10,87,72,59,62,59,56,98,57,35,30.08,30.03,29.96,10,8,0,14,5,22,0.00,0,Rain,205
2013-5-11,83,76,68,66,62,58,84,62,44,29.97,29.90,29.81,10,10,10,17,8,24,0.00,2,,215
2013-5-12,76,68,60,66,53,37,88,58,31,30.03,29.88,29.81,10,10,9,15,9,20,0.00,3,Rain,310
2013-5-13,70,60,50,44,36,31,76,42,25,30.17,30.10,30.04,10,10,10,15,7,22,0.00,1,,335
2013-5-14,73,57,41,43,37,34,93,47,24,30.27,30.19,30.11,10,10,10,10,4,22,0.00,0,,258
2013-5-15,89,73,57,60,54,45,73,52,33,30.11,30.03,29.93,10,10,10,12,8,17,0.00,0,,209
2013-5-16,90,78,66,61,57,48,79,52,25,30.01,29.96,29.92,10,10,10,15,7,21,0.00,1,,246
2013-5-17,89,78,68,65,61,54,78,56,31,30.09,30.05,29.99,10,10,10,10,6,,0.00,2,,220
2013-5-18,85,76,67,70,64,59,99,71,41,30.15,30.12,30.09,10,10,10,10,6,,0.04,1,Rain,215
2013-5-19,80,74,68,70,68,65,100,93,65,30.17,30.12,30.06,10,7,1,21,6,26,1.28,5,Rain-Thunderstorm,170
2013-5-20,78,72,68,72,69,68,100,94,74,30.14,30.09,30.04,10,8,1,12,4,,0.61,6,Rain,182
2013-5-21,84,76,69,75,71,68,100,90,62,30.07,30.03,29.98,10,9,1,14,5,,0.34,5,Rain-Thunderstorm,186
2013-5-22,86,77,69,70,68,64,100,79,49,30.05,30.00,29.94,10,9,2,18,6,25,0.07,4,Rain,184
2013-5-23,84,76,69,72,69,66,100,91,57,29.99,29.90,29.85,10,7,0,17,6,23,0.92,5,Rain-Thunderstorm,242
2013-5-24,76,66,55,70,56,37,100,68,27,30.19,29.95,29.83,10,10,10,22,9,31,0.02,2,Rain,319
2013-5-25,76,61,47,54,40,36,80,49,26,30.31,30.22,30.16,10,10,10,12,5,16,0.00,0,,329
2013-5-26,75,66,56,55,45,40,93,53,32,30.29,30.23,30.19,10,10,10,12,5,,0.00,2,Rain,348
2013-5-27,82,67,52,60,51,46,99,58,28,30.29,30.24,30.18,10,9,2,10,3,,0.00,0,,144
2013-5-28,86,73,61,65,62,60,97,68,46,30.27,30.22,30.18,10,10,10,13,5,,0.00,0,,181
2013-5-29,86,76,66,66,63,61,94,67,45,30.27,30.23,30.19,10,10,10,10,6,17,0.00,1,,197
2013-5-30,88,76,63,67,65,62,99,68,44,30.30,30.23,30.18,10,10,7,12,4,,0.00,1,Rain,177
2013-5-31,89,78,68,69,66,60,99,69,38,30.25,30.19,30.12,10,10,10,10,5,17,0.00,0,,206